DIRECTV 10

Last updated on Fri Mar 27 2026 00:02:49 GMT+0000 (Coordinated Universal Time)

1 31862U 07032A 26085.45808788 -.00000004 00000+0 00000+0 0 9994 2 31862 0.1893 95.3428 0006819 284.0965 225.4963 0.98335855 44759
UTC large
Height (km)
Speed (km/s)
/
Latitude / Longitude
Inclination (degrees)
Orbital Period (minutes)
Azimuth
Elevation
Range (km)
Doppler Factor

Next 0 passes for location: London (51.5072 / 0.1276)

Sorry there are no passes over London.
DIRECTV 10